Ardmore, OK

10:11 PM CDT on August 28, 2016 (GMT -0500)
Ardmore Downtown

Weather History for K1F0 - March, 2014

Change the Weather History Date:

Thursday, March 20, 2014

  Actual Average (KADM) Record (KADM)
Temperature  
Mean Temperature 50 °F -  
Max Temperature 69 °F 63 °F 82 °F (2004)
Min Temperature 32 °F 44 °F 30 °F (2014)
Degree Days  
Heating Degree Days 14    
Moisture  
Dew Point 29 °F    
Average Humidity 50    
Maximum Humidity 93    
Minimum Humidity 18    
Precipitation  
Precipitation 0.00 in - - ()
Sea Level Pressure  
Sea Level Pressure 30.12 in    
Wind  
Wind Speed 2 mph (SSW)    
Max Wind Speed 14 mph    
Max Gust Speed 18 mph    
Visibility 10 miles    
Events      
Averages and records for this station are not official NWS values.
T = Trace of Precipitation, MM = Missing Value Source: NWS Daily Summary

Daily Weather History Graph

Daily Weather History Graph

Search for Another Location

Airport or City:

Trip Planner

Search our weather history database for the weather conditions in past years. The results will help you decide how hot, cold, wet, or windy it might be!

Date:

Astronomy

Mar. 20, 2014 Rise Set
Actual Time 7:32 AM CDT 7:40 PM CDT
Civil Twilight 7:07 AM CDT 8:05 PM CDT
Nautical Twilight 6:38 AM CDT 8:34 PM CDT
Astronomical Twilight 6:08 AM CDT 9:03 PM CDT
Moon 11:49 PM CDT (3/20) 9:49 AM CDT (3/20)
Length of Visible Light 12h 58m
Length of Day
12h 08m
Waning Gibbous, 84% of the Moon is Illuminated
Mar 20
Waning Gibbous
Mar 23
Last Quarter
Mar 30
New
Apr 7
First Quarter
Apr 15
Full

Hourly Weather History & Observations

Time (CDT) Temp. Dew Point Humidity Pressure Visibility Wind Dir Wind Speed Gust Speed Precip Events Conditions
12:15 AM 39.2 °F 30.2 °F 70% 30.23 in 10.0 mi Calm Calm - N/A   Unknown
12:35 AM 41.0 °F 28.4 °F 61% 30.23 in 10.0 mi Calm Calm - N/A   Unknown
12:55 AM 41.0 °F 28.4 °F 61% 30.23 in 10.0 mi Calm Calm - N/A   Unknown
1:15 AM 37.4 °F 30.2 °F 75% 30.23 in 10.0 mi Calm Calm - N/A   Unknown
1:35 AM 37.4 °F 30.2 °F 75% 30.22 in 10.0 mi Calm Calm - N/A   Unknown
1:55 AM 37.4 °F 30.2 °F 75% 30.22 in 10.0 mi Calm Calm - N/A   Unknown
2:15 AM 35.6 °F 30.2 °F 81% 30.22 in 10.0 mi Calm Calm - N/A   Unknown
2:35 AM 37.4 °F 30.2 °F 75% 30.22 in 10.0 mi Calm Calm - N/A   Unknown
2:55 AM 35.6 °F 30.2 °F 81% 30.22 in 10.0 mi Calm Calm - N/A   Unknown
3:15 AM 35.6 °F 30.2 °F 81% 30.21 in 10.0 mi Calm Calm - N/A   Unknown
3:35 AM 35.6 °F 30.2 °F 81% 30.21 in 10.0 mi Calm Calm - N/A   Unknown
3:55 AM 33.8 °F 30.2 °F 87% 30.20 in 10.0 mi Calm Calm - N/A   Unknown
4:15 AM 33.8 °F 30.2 °F 87% 30.19 in 10.0 mi Calm Calm - N/A   Unknown
4:35 AM 33.8 °F 30.2 °F 87% 30.19 in 10.0 mi Calm Calm - N/A   Unknown
4:55 AM 33.8 °F 30.2 °F 87% 30.19 in 10.0 mi Calm Calm - N/A   Unknown
5:15 AM 33.8 °F 30.2 °F 87% 30.18 in 10.0 mi Calm Calm - N/A   Unknown
5:35 AM 33.8 °F 28.4 °F 81% 30.19 in 10.0 mi Calm Calm - N/A   Unknown
5:55 AM 33.8 °F 30.2 °F 87% 30.19 in 10.0 mi Calm Calm - N/A   Unknown
6:15 AM 32.0 °F 28.4 °F 87% 30.19 in 10.0 mi Calm Calm - N/A   Unknown
6:35 AM 32.0 °F 30.2 °F 93% 30.18 in 10.0 mi Calm Calm - N/A   Unknown
6:55 AM 32.0 °F 30.2 °F 93% 30.18 in 10.0 mi Calm Calm - N/A   Unknown
7:15 AM 32.0 °F 28.4 °F 87% 30.18 in 10.0 mi Calm Calm - N/A   Unknown
7:35 AM 32.0 °F 30.2 °F 93% 30.19 in 10.0 mi Calm Calm - N/A   Unknown
7:55 AM 32.0 °F 30.2 °F 93% 30.19 in 10.0 mi Calm Calm - N/A   Unknown
8:15 AM 33.8 °F 32.0 °F 93% 30.20 in 10.0 mi Calm Calm - N/A   Unknown
8:35 AM 37.4 °F 33.8 °F 87% 30.20 in 10.0 mi Calm Calm - N/A   Unknown
8:55 AM 41.0 °F 33.8 °F 76% 30.20 in 10.0 mi Calm Calm - N/A   Unknown
9:15 AM 44.6 °F 32.0 °F 61% 30.21 in 10.0 mi Calm Calm - N/A   Unknown
9:35 AM 46.4 °F 32.0 °F 57% 30.21 in 10.0 mi Calm Calm - N/A   Unknown
9:55 AM 51.8 °F 32.0 °F 47% 30.21 in 10.0 mi South 3.5 mph - N/A   Unknown
10:15 AM 53.6 °F 30.2 °F 41% 30.21 in 10.0 mi South 3.5 mph - N/A   Unknown
10:35 AM 57.2 °F 28.4 °F 33% 30.21 in 10.0 mi SW 4.6 mph - N/A   Unknown
10:55 AM 59.0 °F 26.6 °F 29% 30.21 in 10.0 mi South 5.8 mph - N/A   Unknown
11:15 AM 59.0 °F 28.4 °F 31% 30.21 in 10.0 mi WSW 3.5 mph - N/A   Unknown
11:35 AM 60.8 °F 24.8 °F 25% 30.20 in 10.0 mi SW 6.9 mph - N/A   Unknown
11:55 AM 60.8 °F 24.8 °F 25% 30.20 in 10.0 mi SW 5.8 mph - N/A   Unknown
12:15 PM 62.6 °F 24.8 °F 24% 30.19 in 10.0 mi SW 5.8 mph - N/A   Unknown
12:35 PM 62.6 °F 24.8 °F 24% 30.17 in 10.0 mi South 8.1 mph - N/A   Unknown
12:55 PM 64.4 °F 26.6 °F 24% 30.16 in 10.0 mi South 8.1 mph - N/A   Unknown
1:15 PM 64.4 °F 23.0 °F 21% 30.15 in 10.0 mi SW 5.8 mph - N/A   Unknown
1:35 PM 66.2 °F 24.8 °F 21% 30.14 in 10.0 mi South 5.8 mph - N/A   Unknown
1:55 PM 66.2 °F 23.0 °F 19% 30.12 in 10.0 mi WSW 4.6 mph - N/A   Unknown
2:15 PM 68.0 °F 23.0 °F 18% 30.10 in 10.0 mi WSW 4.6 mph 16.1 mph N/A   Unknown
2:35 PM 68.0 °F 23.0 °F 18% 30.09 in 10.0 mi SSW 5.8 mph - N/A   Unknown
2:55 PM 68.0 °F 24.8 °F 20% 30.07 in 10.0 mi South 5.8 mph - N/A   Unknown
3:15 PM 69.8 °F 24.8 °F 18% 30.06 in 10.0 mi SSW 8.1 mph 16.1 mph N/A   Unknown
3:35 PM 69.8 °F 24.8 °F 18% 30.05 in 10.0 mi South 10.4 mph - N/A   Unknown
3:55 PM 69.8 °F 24.8 °F 18% 30.05 in 10.0 mi South 9.2 mph - N/A   Unknown
4:15 PM 69.8 °F 26.6 °F 20% 30.03 in 10.0 mi South 10.4 mph - N/A   Unknown
4:35 PM 69.8 °F 26.6 °F 20% 30.02 in 10.0 mi South 13.8 mph 18.4 mph N/A   Unknown
4:55 PM 69.8 °F 26.6 °F 20% 30.01 in 10.0 mi SSW 8.1 mph 17.3 mph N/A   Unknown
5:15 PM 69.8 °F 26.6 °F 20% 30.00 in 10.0 mi SSW 10.4 mph 16.1 mph N/A   Unknown
5:35 PM 69.8 °F 26.6 °F 20% 30.01 in 10.0 mi SSW 12.7 mph 17.3 mph N/A   Unknown
5:55 PM 69.8 °F 26.6 °F 20% 30.00 in 10.0 mi South 10.4 mph - N/A   Unknown
6:15 PM 69.8 °F 26.6 °F 20% 29.99 in 10.0 mi SSW 9.2 mph - N/A   Unknown
6:35 PM 68.0 °F 26.6 °F 21% 29.99 in 10.0 mi South 11.5 mph 17.3 mph N/A   Unknown
6:55 PM 68.0 °F 28.4 °F 23% 29.98 in 10.0 mi South 10.4 mph - N/A   Unknown
7:15 PM 64.4 °F 28.4 °F 26% 29.98 in 10.0 mi South 6.9 mph - N/A   Unknown
7:35 PM 64.4 °F 28.4 °F 26% 29.98 in 10.0 mi South 6.9 mph - N/A   Unknown
7:55 PM 62.6 °F 28.4 °F 27% 29.97 in 10.0 mi South 3.5 mph - N/A   Unknown
8:15 PM 60.8 °F 28.4 °F 29% 29.98 in 10.0 mi South 4.6 mph - N/A   Unknown
8:35 PM 59.0 °F 28.4 °F 31% 29.98 in 10.0 mi Calm Calm - N/A   Unknown
8:55 PM 57.2 °F 32.0 °F 38% 29.97 in 10.0 mi South 3.5 mph - N/A   Unknown
9:15 PM 55.4 °F 32.0 °F 41% 29.98 in 10.0 mi Calm Calm - N/A   Unknown
9:35 PM 55.4 °F 32.0 °F 41% 29.98 in 10.0 mi South 3.5 mph - N/A   Unknown
9:55 PM 53.6 °F 32.0 °F 44% 29.98 in 10.0 mi Calm Calm - N/A   Unknown
10:15 PM 53.6 °F 32.0 °F 44% 29.99 in 10.0 mi South 3.5 mph - N/A   Unknown
10:35 PM 53.6 °F 32.0 °F 44% 29.99 in 10.0 mi South 4.6 mph - N/A   Unknown
10:55 PM 51.8 °F 32.0 °F 47% 29.98 in 10.0 mi South 3.5 mph - N/A   Unknown
11:15 PM 51.8 °F 32.0 °F 47% 29.99 in 10.0 mi South 3.5 mph - N/A   Unknown
11:35 PM 50.0 °F 32.0 °F 50% 29.98 in 10.0 mi South 4.6 mph - N/A   Unknown
11:55 PM 50.0 °F 33.8 °F 54% 29.99 in 10.0 mi South 4.6 mph - N/A   Unknown